Regional Weather Roundup
Issued by NWS

Home | Current Version | Previous Version | Text Only | Print | Product List | Glossary On
Versions: 1 2 3 4 5 6 7 8 9 10 11 12 13 14 15 16 17 18 19 20 21 22 23 24 25 26 27
000
ASUS45 KREV 291510
RWRNV
NEVADA REGIONAL WEATHER ROUNDUP
NATIONAL WEATHER SERVICE RENO NV
800 AM PDT WED MAR 29 2017

NOTE: "FAIR" INDICATES FEW OR NO CLOUDS BELOW 12,000 FEET WITH NO
SIGNIFICANT WEATHER AND/OR OBSTRUCTIONS TO VISIBILITY.

NVZ001-003-004-291600-
WESTERN NEVADA

CITY           SKY/WX    TMP DP  RH WIND       PRES   REMARKS
RENO           MOSUNNY   37  28  70 SE3       30.26F
CARSON CITY    FAIR      34  27  75 CALM      30.29R
MINDEN         FAIR      32  27  80 SE3       30.29R
FALLON         PTSUNNY   40  23  50 S3        30.27R
LOVELOCK       SUNNY     32  26  78 CALM      30.26R
HAWTHORNE      SUNNY     41  21  45 CALM      30.27S
$$

NVZ002-CAZ072-073-291600-
NORTHERN AND CENTRAL SIERRA

CITY           SKY/WX    TMP DP  RH WIND       PRES   REMARKS
S. LAKE TAHOE  SUNNY     29  25  85 CALM      30.30R
TRUCKEE        SUNNY     27  25  93 CALM      30.29R
SQUAW VLY 8000   N/A     34  30  86 N5          N/A
MAMMOTH LAKES  FAIR      28  23  81 CALM      30.30R
BRIDGEPORT       N/A     28  22  78 CALM      30.28R
$$

NVZ030-031-036-291600-
NORTHERN NEVADA

CITY           SKY/WX    TMP DP  RH WIND       PRES   REMARKS
ELKO           SUNNY     33  29  85 CALM      30.27S
WINNEMUCCA     SUNNY     32  28  85 CALM      30.25R
WENDOVER       SUNNY     40  27  59 CALM      30.26S
$$

NVZ035-037-291600-
CENTRAL NEVADA

CITY           SKY/WX    TMP DP  RH WIND       PRES   REMARKS
ELY            SUNNY     30  24  78 CALM      30.27R
EUREKA           N/A     33  26  75 S3        30.28S
$$

NVZ013-014-291600-
SOUTH CENTRAL NEVADA

CITY           SKY/WX    TMP DP  RH WIND       PRES   REMARKS
TONOPAH        SUNNY     39  26  59 N12       30.26R
$$

NVZ017-020-022-291600-
SOUTHERN NEVADA

CITY           SKY/WX    TMP DP  RH WIND       PRES   REMARKS
LAS VEGAS      MOSUNNY   59  25  27 CALM      30.16R
N. LAS VEGAS   SUNNY     58  25  28 NW9       30.16R
NELLIS AFB     SUNNY     58  28  30 NE3       30.16R
HENDERSON      SUNNY     55  29  36 CALM      30.18R
MERCURY        SUNNY     53  25  33 NE7       30.18R
$$




USA.gov is the U.S. government's official web portal to all federal, state and local government web resources and services.